Weather in Hlobyne

Ukraine / Poltava Region     49°22′47″N   33°16′15″E
temp.,
°C
wind,
m/s
gust,
m/s
humid.,
%
clouds,
%
prec.,
mm/h
press.,
hPa
HPBL,
m
11 may, tue
tue1100:00+10nnw51370100 0.0 1021440
03:00+10nnw61365100 0.0 1019454
06:00+9n6147386 0.0 1019452
09:00+12n61374100 0.0 1018537
12:00+18nne8106439 0.0 10171101
15:00+15ene6980100 0.2 1017690
18:00+12ne6108362 0.3 1018875
21:00+9ne410825 0.4 1018238
12 may, wed
wed1200:00+6nne5118874 0.0 1018276
03:00+8ne51083100 0.1 1017755
06:00+7ene51182100 0.0 1018746
09:00+10ene6978100 0.2 10171109
12:00+10e577599 0.4 1017988
15:00+10ene5679100 0.6 1016757
18:00+12ene346787 0.1 10141017
21:00+9ese117639 0.2 101411
13 may, thu
thu1300:00+7ese228991 0.0 101425
03:00+6se349355 0.0 101466
06:00+6ese359270 0.0 1014111
09:00+12se567180 0.0 1014570
12:00+16sse465434 0.0 10131570
15:00+19sse4649100 0.0 10121699
18:00+18se4666100 0.0 1011442
21:00+15e4874100 0.0 1011142
14 may, fri
fri1400:00+12ese369523 1.1 101198
03:00+13se369271 1.3 1010104
06:00+12sse349399 0.0 101081
09:00+18s35735 0.0 1010506
12:00+21ssw4559100 0.0 10101058
15:00+22ssw4552100 0.0 10101343
18:00+22ssw2459100 0.0 1009665
21:00+17sse11688 0.0 100911
15 may, sat
sat1500:00+15e227530 0.1 100914
03:00+13ssw349768 1.8 100969
06:00+13ssw369453 1.1 1009141
09:00+17sw577921 1.1 1010592
12:00+19wsw67705 1.0 10111029
15:00+20w676667 1.1 10111220
18:00+19nw45692 0.1 1012903
21:00+14wnw2286100 0.2 101311